sat.trackr.live / text

‹ back to catalog

STARLINK-36566

NORAD 67551 · 2026-014V

PAYLOAD ACTIVE UNKNOWN

§ Identity

Operator
Country
US
Launch date
2026-01-22
Launch site
AFWTR
Launch vehicle
Mass (kg)
RCS (m²)

Purposes: comms

External: N2YO · Heavens-Above · Gunter

§ Orbital elements

Epoch: 2026-05-25T02:55:55.704000Z

Period
93.91 min
Inclination
97.2873°
Eccentricity
0.0001183
Mean motion
15.33454714 rev/d
Perigee alt
464.7 km
Apogee alt
466.3 km
Semi-major
6,843.7 km
B*
8.3213e-4
RAAN
32.1181°
Arg perigee
103.3240°
Mean anomaly
256.8135°
Rev number
2,048

§ Raw data

STARLINK-365661 67551U 26014V   26145.12217250  .00026893  00000+0  83213-3 0  99922 67551  97.2873  32.1181 0001183 103.3240 256.8135 15.33454714 20485

JSON: /api/v1/satellites/67551 · /tle

For live sub-satellite position, see the globe view (requires WebGL).

§ Visibility from observer

Set your observer location to see the next 7 days of passes ≥ 10°. The values pass through the URL so the page stays shareable.

No JS? Fill the form by hand. The geolocation button needs JavaScript.